TimeCST,TemperatureF,Dew PointF,Humidity,Sea Level PressureIn,VisibilityMPH,Wind Direction,Wind SpeedMPH,Gust SpeedMPH,PrecipitationIn,Events,Conditions,WindDirDegrees,DateUTC
12:52 AM,8.1,1.0,73,30.38,-9999.0,Calm,Calm,-,N/A,,Unknown,0,2014-01-29 06:52:00
1:52 AM,6.1,-0.9,73,30.38,-9999.0,SW,3.5,-,N/A,,Unknown,230,2014-01-29 07:52:00
2:52 AM,6.1,-0.9,73,30.37,-9999.0,South,3.5,-,N/A,,Unknown,190,2014-01-29 08:52:00
3:52 AM,6.1,-0.0,76,30.35,-9999.0,SSW,3.5,-,N/A,,Unknown,200,2014-01-29 09:52:00
4:52 AM,3.0,-2.9,76,30.34,-9999.0,South,3.5,-,N/A,,Unknown,190,2014-01-29 10:52:00
5:52 AM,6.1,-2.0,69,30.33,-9999.0,SSW,3.5,-,N/A,,Unknown,200,2014-01-29 11:52:00
6:52 AM,5.0,-2.0,73,30.33,-9999.0,Calm,Calm,-,N/A,,Unknown,0,2014-01-29 12:52:00
7:52 AM,9.0,-0.0,67,30.33,-9999.0,SSW,5.8,-,N/A,,Unknown,200,2014-01-29 13:52:00
8:52 AM,15.1,3.9,61,30.31,-9999.0,South,5.8,-,N/A,,Unknown,190,2014-01-29 14:52:00
9:52 AM,23.0,8.1,53,30.30,-9999.0,SSW,6.9,-,N/A,,Unknown,200,2014-01-29 15:52:00
10:52 AM,28.9,8.1,41,30.28,-9999.0,South,10.4,-,N/A,,Unknown,190,2014-01-29 16:52:00
11:52 AM,33.1,10.0,38,30.25,-9999.0,South,13.8,19.6,N/A,,Unknown,180,2014-01-29 17:52:00
12:52 PM,37.0,10.0,33,30.20,-9999.0,SSW,11.5,-,N/A,,Unknown,200,2014-01-29 18:52:00
1:52 PM,39.0,10.0,30,30.16,-9999.0,SSW,11.5,21.9,N/A,,Unknown,200,2014-01-29 19:52:00
2:52 PM,39.9,10.9,31,30.12,-9999.0,South,17.3,25.3,N/A,,Unknown,180,2014-01-29 20:52:00
3:52 PM,39.9,10.9,31,30.09,-9999.0,South,13.8,23.0,N/A,,Unknown,190,2014-01-29 21:52:00
4:52 PM,39.0,10.0,30,30.08,-9999.0,South,15.0,23.0,N/A,,Unknown,190,2014-01-29 22:52:00
5:52 PM,36.0,10.0,34,30.05,-9999.0,South,10.4,-,N/A,,Unknown,180,2014-01-29 23:52:00
6:52 PM,34.0,9.0,35,30.06,-9999.0,South,8.1,-,N/A,,Unknown,170,2014-01-30 00:52:00
7:52 PM,35.1,9.0,34,30.02,-9999.0,South,12.7,20.7,N/A,,Unknown,180,2014-01-30 01:52:00
8:52 PM,35.1,10.0,35,29.99,-9999.0,South,16.1,24.2,N/A,,Unknown,190,2014-01-30 02:52:00
9:52 PM,34.0,10.9,38,29.97,-9999.0,South,13.8,25.3,N/A,,Unknown,180,2014-01-30 03:52:00
10:52 PM,33.1,10.0,38,29.95,-9999.0,South,13.8,-,N/A,,Unknown,190,2014-01-30 04:52:00
11:52 PM,32.0,10.0,40,29.93,-9999.0,South,16.1,23.0,N/A,,Unknown,180,2014-01-30 05:52:00